Location: Unspecified
(0.0000°N, 0.0000°E)
Time: 10:38:10
(UTC+00:00)

Galileo 6 - Visible Passes

Search period start: 30 November 2022 00:00
Search period end: 10 December 2022 00:00
Orbit: 17086 x 26112 km, 50.2° (Epoch: 28 November)

Date Brightness Start Highest point End Pass type
(mag) Time Alt. Az. Time Alt. Az. Time Alt. Az.
30 Nov ? 01:26:31 10° NNW 03:55:49 71° ENE 07:13:15 10° SE visible
01 Dec ? 04:00:46 10° NW 06:05:25 71° WSW 15:14:42 10° NE visible
02 Dec ? 06:35:51 10° NW 15:17:07 60° E 17:58:22 10° NE visible
03 Dec ? 11:01:08 10° SW 17:09:35 83° W 20:31:08 10° NNE visible
04 Dec ? 15:03:08 10° SW 18:56:08 47° W 00:46:24 10° E visible
05 Dec ? 18:49:02 10° SW 20:28:00 15° W 04:38:21 10° SE visible
07 Dec ? 01:53:12 10° NNW 04:11:43 84° ENE 07:59:36 10° SE visible
08 Dec ? 04:23:23 10° NW 06:22:29 59° WSW 15:46:24 10° NE visible
09 Dec ? 07:08:38 10° WNW 15:27:39 72° E 18:21:14 10° NNE visible
